DLH4TR EDDF-LPMA

Flight info

Callsign DLH4TR
Flight time N/A
Altitude 34000
Route ANEKI2L/18 ANEKI Y163 HERBI Y164 MOPAN DCT LUTIX DCT BENOT DCT NEMOS DCT NINTU DCT MEBAK DCT REPSI DCT LERGA DCT MINSO DCT NARAK DCT AGN/N0412F270 DCT LATEK DCT PPN/N0461F350 DCT MIRPO DCT DGO DCT NEA L14 ADINO DCT PORTA DCT EXONA DCT NAKOS DCT GALPA DCT RAKUN
Aircraft A21N/M-SDE2E3FGHIRWXY/LB1

Departure

Time 2026-05-04 15:41
Airport Frankfurt Main Airport (EDDF)

Arrival

Time N/A
Airport Cristiano Ronaldo International Airport (LPMA)
Time Latitude Longitude Altitude Speed Heading
2026-05-04 15:05 50.04895 8.56994 368 ft 0 kts 295°
2026-05-04 15:22 50.04889 8.57012 365 ft 4 kts 293°
2026-05-04 15:23 50.04880 8.57051 367 ft 4 kts 280°
2026-05-04 15:23 50.04880 8.57090 365 ft 4 kts 237°
2026-05-04 15:23 50.04884 8.57099 364 ft 0 kts 212°
2026-05-04 15:26 50.04853 8.57077 367 ft 9 kts 202°
2026-05-04 15:26 50.04795 8.57036 366 ft 10 kts 205°
2026-05-04 15:26 50.04609 8.56909 367 ft 17 kts 193°
2026-05-04 15:27 50.04492 8.56869 364 ft 17 kts 198°
2026-05-04 15:27 50.04391 8.56574 368 ft 15 kts 250°
2026-05-04 15:28 50.04310 8.56239 367 ft 19 kts 249°
2026-05-04 15:28 50.04261 8.56038 366 ft 21 kts 250°
2026-05-04 15:28 50.04187 8.55719 368 ft 14 kts 250°
2026-05-04 15:29 50.04153 8.55576 370 ft 14 kts 250°
2026-05-04 15:30 50.04017 8.55011 365 ft 16 kts 250°
2026-05-04 15:30 50.03894 8.54495 370 ft 19 kts 249°
2026-05-04 15:31 50.03782 8.54149 368 ft 17 kts 249°
2026-05-04 15:31 50.03741 8.53973 366 ft 17 kts 249°
2026-05-04 15:32 50.03611 8.53447 368 ft 17 kts 250°
2026-05-04 15:32 50.03529 8.53100 368 ft 17 kts 250°
2026-05-04 15:33 50.03477 8.52883 370 ft 7 kts 248°
2026-05-04 15:34 50.03476 8.52879 370 ft 0 kts 248°
2026-05-04 15:36 50.03475 8.52877 370 ft 2 kts 246°
2026-05-04 15:36 50.03462 8.52834 370 ft 5 kts 244°
2026-05-04 15:36 50.03440 8.52753 369 ft 8 kts 250°
2026-05-04 15:37 50.03434 8.52727 368 ft 0 kts 249°
2026-05-04 15:37 50.03433 8.52722 371 ft 2 kts 249°
2026-05-04 15:37 50.03429 8.52705 371 ft 6 kts 250°
2026-05-04 15:38 50.03389 8.52615 371 ft 14 kts 220°
2026-05-04 15:38 50.03326 8.52593 368 ft 0 kts 180°
2026-05-04 15:40 50.03209 8.52596 365 ft 47 kts 180°
2026-05-04 15:40 50.02675 8.52600 369 ft 107 kts 180°
2026-05-04 15:40 50.01728 8.52612 370 ft 164 kts 181°
2026-05-04 15:40 50.00552 8.52646 780 ft 174 kts 180°
2026-05-04 15:41 49.99322 8.52700 1330 ft 177 kts 181°
2026-05-04 15:41 49.98084 8.52786 1947 ft 181 kts 182°
2026-05-04 15:41 49.96754 8.52874 2216 ft 203 kts 180°
2026-05-04 15:41 49.95250 8.52974 2544 ft 226 kts 179°
2026-05-04 15:42 49.93635 8.53087 3229 ft 237 kts 179°
2026-05-04 15:42 49.91992 8.53206 3753 ft 236 kts 180°
2026-05-04 15:42 49.90350 8.53323 4100 ft 237 kts 180°
2026-05-04 15:42 49.88702 8.53438 4974 ft 235 kts 179°
2026-05-04 15:43 49.87102 8.53547 6208 ft 226 kts 178°
2026-05-04 15:43 49.85552 8.53652 7266 ft 222 kts 179°
2026-05-04 15:43 49.84000 8.53756 8098 ft 226 kts 179°
2026-05-04 15:43 49.82414 8.53862 8942 ft 229 kts 180°
2026-05-04 15:44 49.80815 8.53969 9825 ft 232 kts 180°
2026-05-04 15:44 49.79191 8.54077 10602 ft 236 kts 180°
2026-05-04 15:44 49.77556 8.54051 11309 ft 243 kts 185°
2026-05-04 15:44 49.75796 8.53854 11670 ft 266 kts 187°
2026-05-04 15:45 49.73858 8.53590 11979 ft 290 kts 187°
2026-05-04 15:45 49.71764 8.53302 12291 ft 314 kts 187°
2026-05-04 15:45 49.69514 8.52998 12667 ft 333 kts 186°
2026-05-04 15:45 49.67161 8.52685 13319 ft 343 kts 186°
2026-05-04 15:46 49.64763 8.52369 14040 ft 349 kts 187°
2026-05-04 15:46 49.62323 8.52048 14720 ft 354 kts 187°
2026-05-04 15:46 49.59851 8.51723 15469 ft 358 kts 187°
2026-05-04 15:46 49.57354 8.51395 16200 ft 362 kts 187°
2026-05-04 15:47 49.54837 8.51064 16923 ft 365 kts 187°
2026-05-04 15:47 49.52294 8.50730 17643 ft 369 kts 187°
2026-05-04 15:47 49.49721 8.50392 18329 ft 373 kts 187°
2026-05-04 15:47 49.47116 8.50051 18919 ft 376 kts 187°
2026-05-04 15:48 49.44531 8.49712 19512 ft 379 kts 187°
2026-05-04 15:48 49.41857 8.49363 20102 ft 382 kts 187°
2026-05-04 15:48 49.36551 8.48670 21265 ft 388 kts 187°
2026-05-04 15:49 49.33844 8.48317 21854 ft 391 kts 187°
2026-05-04 15:49 49.31120 8.47961 22438 ft 395 kts 187°
2026-05-04 15:49 49.28370 8.47603 23018 ft 398 kts 187°
2026-05-04 15:49 49.25599 8.47242 23577 ft 401 kts 187°
2026-05-04 15:50 49.22813 8.46880 24044 ft 403 kts 187°
2026-05-04 15:50 49.20008 8.46514 24528 ft 405 kts 187°
2026-05-04 15:50 49.17192 8.46148 24978 ft 407 kts 187°
2026-05-04 15:50 49.14367 8.45781 25429 ft 408 kts 187°
2026-05-04 15:51 49.11527 8.45414 25881 ft 410 kts 187°
2026-05-04 15:51 49.08679 8.45045 26305 ft 412 kts 187°
2026-05-04 15:51 49.05838 8.44429 26716 ft 412 kts 192°
2026-05-04 15:51 49.03021 8.43581 27132 ft 413 kts 193°
2026-05-04 15:52 49.00205 8.42654 27517 ft 415 kts 194°
2026-05-04 15:52 48.97383 8.41679 27911 ft 416 kts 194°
2026-05-04 15:52 48.94552 8.40682 28264 ft 419 kts 194°
2026-05-04 15:52 48.91744 8.39689 28610 ft 420 kts 194°
2026-05-04 15:53 48.88887 8.38683 28990 ft 421 kts 194°
2026-05-04 15:53 48.86034 8.37684 29490 ft 420 kts 194°
2026-05-04 15:53 48.83196 8.36697 30017 ft 417 kts 194°
2026-05-04 15:53 48.80370 8.35718 30439 ft 415 kts 194°
2026-05-04 15:54 48.77553 8.34729 30824 ft 414 kts 194°
2026-05-04 15:54 48.74750 8.33718 31169 ft 414 kts 195°
2026-05-04 15:54 48.71953 8.32696 31528 ft 413 kts 195°
2026-05-04 15:54 48.69157 8.31669 31853 ft 413 kts 195°
2026-05-04 15:55 48.66368 8.30646 32182 ft 412 kts 195°
2026-05-04 15:55 48.63585 8.29628 32572 ft 410 kts 195°
2026-05-04 15:55 48.60813 8.28616 32925 ft 409 kts 195°
2026-05-04 15:55 48.58043 8.27608 33239 ft 409 kts 195°
2026-05-04 15:56 48.55280 8.26605 33529 ft 408 kts 195°
2026-05-04 15:56 48.52519 8.25604 33847 ft 408 kts 195°
2026-05-04 15:56 48.49765 8.24607 34132 ft 407 kts 195°
2026-05-04 15:56 48.47018 8.23609 34359 ft 406 kts 195°
2026-05-04 15:57 48.44300 8.22618 34577 ft 406 kts 195°
2026-05-04 15:57 48.41554 8.21615 34785 ft 406 kts 195°
2026-05-04 15:57 48.38804 8.20609 34954 ft 407 kts 195°
2026-05-04 15:57 48.36088 8.19617 34985 ft 408 kts 195°
2026-05-04 16:03 48.34467 8.19026 34986 ft 408 kts 195°
2026-05-04 16:03 48.28948 8.17020 34988 ft 407 kts 195°
2026-05-04 16:04 48.23584 8.14518 34991 ft 405 kts 205°
2026-05-04 16:04 48.15944 8.09101 34990 ft 405 kts 207°
2026-05-04 16:05 48.10902 8.05333 34992 ft 405 kts 207°
2026-05-04 16:06 48.03332 7.99720 34986 ft 405 kts 207°
2026-05-04 16:07 47.93216 7.92296 34992 ft 405 kts 207°
2026-05-04 16:08 47.83091 7.84903 34998 ft 405 kts 207°
2026-05-04 16:09 47.70415 7.75691 35009 ft 406 kts 207°
2026-05-04 16:10 47.60298 7.68373 35017 ft 406 kts 207°
2026-05-04 16:11 47.50142 7.61059 35019 ft 406 kts 207°
2026-05-04 16:12 47.34874 7.50123 35012 ft 406 kts 207°
2026-05-04 16:13 47.24742 7.42903 35055 ft 404 kts 207°
2026-05-04 16:14 47.15240 7.34381 35047 ft 402 kts 225°
2026-05-04 16:16 47.06374 7.18485 35036 ft 403 kts 231°
2026-05-04 16:17 46.97654 7.02416 35045 ft 403 kts 230°
2026-05-04 16:18 46.90655 6.89675 35051 ft 400 kts 230°
2026-05-04 16:19 46.81923 6.73887 35051 ft 399 kts 230°
2026-05-04 16:20 46.73763 6.59213 35052 ft 399 kts 231°
2026-05-04 16:22 46.65012 6.43560 35055 ft 398 kts 230°
2026-05-04 16:23 46.54510 6.24896 35043 ft 397 kts 230°
2026-05-04 16:25 46.44008 6.06353 35045 ft 397 kts 230°
2026-05-04 16:26 46.31712 5.84803 35041 ft 396 kts 230°
2026-05-04 16:28 46.22913 5.69484 35022 ft 396 kts 230°
2026-05-04 16:29 46.11036 5.47643 35011 ft 395 kts 234°
2026-05-04 16:31 46.03257 5.31420 35002 ft 395 kts 234°
2026-05-04 16:32 45.93856 5.11981 35021 ft 394 kts 234°
2026-05-04 16:33 45.87597 4.99116 35015 ft 393 kts 234°
2026-05-04 16:34 45.82895 4.89492 35019 ft 393 kts 234°
2026-05-04 16:35 45.73464 4.70283 35033 ft 393 kts 233°
2026-05-04 16:36 45.68743 4.60715 34977 ft 392 kts 233°
2026-05-04 16:37 45.64039 4.51212 34968 ft 392 kts 233°
2026-05-04 16:38 45.57728 4.38510 34964 ft 392 kts 233°
2026-05-04 16:39 45.49819 4.22672 34959 ft 392 kts 233°
2026-05-04 16:40 45.43477 4.10052 34966 ft 391 kts 233°
2026-05-04 16:41 45.35539 3.94332 34966 ft 391 kts 233°
2026-05-04 16:43 45.27578 3.78650 34976 ft 392 kts 232°
2026-05-04 16:43 45.22832 3.69179 34946 ft 393 kts 233°
2026-05-04 16:45 45.13458 3.50135 34920 ft 392 kts 233°
2026-05-04 16:46 45.05657 3.34428 34932 ft 391 kts 233°
2026-05-04 16:47 44.99390 3.21870 34935 ft 391 kts 233°
2026-05-04 16:48 44.93111 3.09343 34932 ft 390 kts 233°
2026-05-04 16:49 44.86809 2.96828 34938 ft 393 kts 233°
2026-05-04 16:50 44.80702 2.84047 34926 ft 393 kts 235°
2026-05-04 16:51 44.76268 2.74330 34934 ft 393 kts 235°
2026-05-04 16:52 44.70288 2.61397 34929 ft 399 kts 235°
2026-05-04 16:53 44.65732 2.51602 34937 ft 401 kts 235°
2026-05-04 16:54 44.59613 2.38491 34940 ft 401 kts 235°
2026-05-04 16:55 44.50481 2.19034 34921 ft 402 kts 234°
2026-05-04 16:56 44.42750 2.02670 34924 ft 403 kts 234°
2026-05-04 16:57 44.38112 1.92893 34918 ft 400 kts 234°
2026-05-04 16:58 44.31960 1.79975 34916 ft 400 kts 233°
2026-05-04 17:00 44.22874 1.60419 34922 ft 400 kts 234°
2026-05-04 17:01 44.15388 1.44162 34919 ft 398 kts 233°
2026-05-04 17:02 44.09388 1.31233 34922 ft 397 kts 233°
2026-05-04 17:03 44.04880 1.21553 34922 ft 398 kts 233°
2026-05-04 17:03 44.00360 1.11879 34930 ft 399 kts 233°
2026-05-04 17:04 43.94268 0.98891 34925 ft 402 kts 233°
2026-05-04 17:05 43.87969 0.86122 34933 ft 399 kts 227°
2026-05-04 17:06 43.82498 0.77454 34928 ft 398 kts 225°
2026-05-04 17:07 43.78174 0.70820 34939 ft 400 kts 226°
2026-05-04 17:07 43.73204 0.63192 34947 ft 401 kts 226°
2026-05-04 17:08 43.68212 0.55525 34947 ft 401 kts 226°
2026-05-04 17:09 43.63870 0.48870 34959 ft 401 kts 226°
2026-05-04 17:09 43.60133 0.43155 34954 ft 401 kts 226°
2026-05-04 17:10 43.51409 0.29860 34968 ft 401 kts 226°
2026-05-04 17:11 43.47661 0.24167 34974 ft 401 kts 226°
2026-05-04 17:12 43.42037 0.15647 34978 ft 401 kts 226°
2026-05-04 17:13 43.32657 0.01491 34997 ft 400 kts 226°
2026-05-04 17:14 43.25118 -0.09835 34994 ft 403 kts 226°
2026-05-04 17:15 43.19436 -0.18343 34995 ft 402 kts 226°
2026-05-04 17:16 43.11883 -0.29612 34996 ft 401 kts 226°
2026-05-04 17:17 43.04310 -0.40866 34998 ft 402 kts 226°
2026-05-04 17:18 42.96758 -0.52044 34988 ft 400 kts 226°
2026-05-04 17:19 42.89371 -0.63442 34989 ft 401 kts 235°
2026-05-04 17:19 42.87005 -0.70342 34995 ft 406 kts 252°
2026-05-04 17:20 42.85805 -0.77842 34992 ft 409 kts 256°
2026-05-04 17:20 42.84347 -0.89382 34974 ft 413 kts 257°